Starlink 32653

operational
NORAD ID: 62199 Int'l Des: 2024-229 Owner: SPXS Country: US Constellation: starlink
LEOCIRCULAR

Starlink 32653について

説明を読み込み中...

リアルタイム位置

3D地球を読み込み中...

次回通過

高度履歴

Altitude vs Time

uPlot chart will show altitude changes over time

軌道要素

1 62199U 24229H 25303.00393423 .00038899 00000-0 14131-2 0 9992
2 62199 43.0035 281.8857 0001290 308.4075 51.6661 15.27639458 50653
Epoch: Oct 30, 2025 • Age: 23 hours

現在のステータス

高度 485.5 km
速度 7.62 km/s
衛星直下点 -13.41°S, 87.74°E
打ち上げ日 Dec 4, 2024
運用期間 0.9 years
タイプ internet

技術仕様

分類 Payload
質量 730.00 kg
乾燥質量 700.00 kg
総質量 730.00 kg
長さ 0.30 m
直径 4.10 m
スパン 29.00 m
形状 Box + pan
製造者 SPXS
バスタイプ Starlink V2M
フェーズステータス In Orbit
所有者/国 SPXS/US

大規模コンステレーション

Loading constellations...